Location: Caltech
(34.1382°N, 118.1253°W)
Time: 14:15:01
(UTC-07:00)

Iridium 72 - Visible Passes

Search period start: 29 April 2017 00:00
Search period end: 09 May 2017 00:00
Orbit: 776 x 779 km, 86.4° (Epoch: 28 April)

Date Brightness Start Highest point End Pass type
(mag) Time Alt. Az. Time Alt. Az. Time Alt. Az.
29 Apr 8.0 01:45:22 16° NE 01:45:22 16° NE 01:46:59 10° NE visible
29 Apr 6.9 03:25:50 27° NW 03:25:50 27° NW 03:28:38 10° NNW visible
30 Apr 6.8 02:52:27 35° N 02:52:27 35° N 02:55:24 10° N visible
01 May 7.2 02:19:03 30° NNE 02:19:03 30° NNE 02:21:47 10° NNE visible
01 May 7.7 03:59:32 12° NW 03:59:32 12° NW 04:00:20 10° NW visible
02 May 7.8 01:45:40 20° NE 01:45:40 20° NE 01:47:44 10° NNE visible
02 May 7.3 03:26:08 20° NW 03:26:08 20° NW 03:28:18 10° NNW visible
03 May 8.2 01:12:15 12° NE 01:12:15 12° NE 01:12:51 10° NE visible
03 May 7.0 02:52:43 29° NNW 02:52:43 29° NNW 02:55:22 10° N visible
04 May 7.1 02:19:18 31° N 02:19:18 31° N 02:21:59 10° N visible
05 May 7.5 01:45:53 25° NNE 01:45:53 25° NNE 01:48:13 10° NNE visible
05 May 7.7 03:26:22 14° NW 03:26:22 14° NW 03:27:41 10° NW visible
06 May 8.0 01:12:27 16° NE 01:12:27 16° NE 01:13:55 10° NE visible
06 May 7.3 02:52:55 22° NW 02:52:55 22° NW 02:55:11 10° NNW visible
07 May 7.1 02:19:29 29° NNW 02:19:29 29° NNW 02:22:02 10° N visible
08 May 7.3 01:46:03 28° NNE 01:46:03 28° NNE 01:48:30 10° N visible
